Baltimore, MD

3:56 PM EDT on September 24, 2017 (GMT -0400)
Baltimore-Washington International

Weather History for KBWI - October, 2013

Change the Weather History Date:

Tuesday, October 22, 2013

  Actual Average Record
Temperature  
Mean Temperature 53 °F 54 °F  
Max Temperature 64 °F 65 °F 85 °F (1979)
Min Temperature 42 °F 43 °F 31 °F (1952)
Degree Days  
Heating Degree Days 12 11  
Month to date heating degree days 99 181  
Since 1 July heating degree days 151 234  
Cooling Degree Days 0 0  
Month to date cooling degree days 51 15  
Year to date cooling degree days 1339 1160  
Growing Degree Days 3 (Base 50)    
Moisture  
Dew Point 45 °F    
Average Humidity 76    
Maximum Humidity 100    
Minimum Humidity 52    
Precipitation  
Precipitation T in 0.11 in 2.04 in (1956)
Month to date precipitation 7.50 2.38  
Year to date precipitation 34.72 34.26  
Snow  
Snow 0.00 in 0.00 in - ()
Month to date snowfall 0.0 0.0  
Since 1 July snowfall 0.0 0.0  
Snow Depth 0.00 in    
Sea Level Pressure  
Sea Level Pressure 29.87 in    
Wind  
Wind Speed 3 mph (West)    
Max Wind Speed 14 mph    
Max Gust Speed 20 mph    
Visibility 10 miles    
Events Fog , Rain    
T = Trace of Precipitation, MM = Missing Value Source: NWS Daily Summary

Daily Weather History Graph

Daily Weather History Graph

Search for Another Location

Airport or City:

Trip Planner

Search our weather history database for the weather conditions in past years. The results will help you decide how hot, cold, wet, or windy it might be!

Date:

Astronomy

Oct. 22, 2013 Rise Set
Actual Time 7:23 AM EDT 6:17 PM EDT
Civil Twilight 6:56 AM EDT 6:45 PM EDT
Nautical Twilight 6:25 AM EDT 7:16 PM EDT
Astronomical Twilight 5:54 AM EDT 7:47 PM EDT
Moon 8:57 PM EDT (10/22) 10:49 AM EDT (10/22)
Length of Visible Light 11h 48m
Length of Day
10h 53m
Waning Gibbous, 87% of the Moon is Illuminated
Oct 22
Waning Gibbous
Oct 26
Last Quarter
Nov 3
New
Nov 10
First Quarter
Nov 17
Full

Hourly Weather History & Observations

Time (EDT) Temp. Windchill Dew Point Humidity Pressure Visibility Wind Dir Wind Speed Gust Speed Precip Events Conditions
12:54 AM 53.1 °F - 46.0 °F 77% 29.96 in 10.0 mi Calm Calm - N/A   Overcast
1:54 AM 51.1 °F - 46.0 °F 83% 29.94 in 10.0 mi Calm Calm - N/A   Overcast
2:54 AM 48.9 °F - 46.0 °F 90% 29.93 in 10.0 mi Calm Calm - N/A   Mostly Cloudy
3:54 AM 48.9 °F - 46.0 °F 90% 29.90 in 10.0 mi Calm Calm - N/A   Scattered Clouds
4:54 AM 48.0 °F - 45.0 °F 89% 29.90 in 10.0 mi Calm Calm - N/A   Scattered Clouds
5:54 AM 46.0 °F - 43.0 °F 89% 29.88 in 10.0 mi Calm Calm - N/A   Scattered Clouds
6:54 AM 43.0 °F 41.3 °F 42.1 °F 97% 29.86 in 8.0 mi West 3.5 mph - N/A   Scattered Clouds
7:54 AM 45.0 °F - 44.1 °F 97% 29.86 in 10.0 mi Calm Calm - N/A Fog Shallow Fog
8:54 AM 51.1 °F - 46.0 °F 83% 29.85 in 10.0 mi Calm Calm - N/A   Scattered Clouds
9:54 AM 57.9 °F - 46.0 °F 65% 29.87 in 10.0 mi SW 8.1 mph - N/A   Mostly Cloudy
10:54 AM 59.0 °F - 46.9 °F 64% 29.86 in 10.0 mi West 5.8 mph - N/A   Mostly Cloudy
11:54 AM 59.0 °F - 48.9 °F 69% 29.87 in 10.0 mi WNW 3.5 mph - 0.00 in Rain Light Rain
12:54 PM 61.0 °F - 46.9 °F 60% 29.85 in 10.0 mi WNW 6.9 mph - 0.00 in   Mostly Cloudy
1:54 PM 61.0 °F - 45.0 °F 56% 29.84 in 10.0 mi West 11.5 mph - 0.00 in   Mostly Cloudy
2:54 PM 62.1 °F - 45.0 °F 53% 29.83 in 10.0 mi West 6.9 mph - N/A   Mostly Cloudy
3:54 PM 61.0 °F - 45.0 °F 56% 29.83 in 10.0 mi WNW 10.4 mph 18.4 mph N/A   Mostly Cloudy
4:54 PM 62.1 °F - 45.0 °F 53% 29.83 in 10.0 mi West 8.1 mph - N/A   Mostly Cloudy
5:54 PM 60.1 °F - 44.1 °F 55% 29.83 in 10.0 mi WNW 8.1 mph 19.6 mph N/A   Scattered Clouds
6:54 PM 55.0 °F - 44.1 °F 67% 29.84 in 10.0 mi WSW 3.5 mph - N/A   Scattered Clouds
7:54 PM 53.1 °F - 43.0 °F 69% 29.86 in 10.0 mi NW 4.6 mph - N/A   Scattered Clouds
8:54 PM 51.1 °F - 43.0 °F 74% 29.85 in 10.0 mi Calm Calm - N/A   Mostly Cloudy
9:54 PM 46.9 °F - 43.0 °F 86% 29.86 in 10.0 mi Calm Calm - N/A   Mostly Cloudy
10:54 PM 48.9 °F - 44.1 °F 83% 29.86 in 10.0 mi Calm Calm - N/A   Overcast
11:54 PM 51.1 °F - 39.0 °F 63% 29.84 in 10.0 mi Calm Calm - N/A   Mostly Cloudy